sat.trackr.live / text

‹ back to catalog

2026-027A

NORAD 67746 · 2026-027A

PAYLOAD ACTIVE UNKNOWN

§ Identity

Operator
Country
PRC
Launch date
2026-02-12
Launch site
SCSLA
Launch vehicle
Mass (kg)
RCS (m²)

External: N2YO · Heavens-Above · Gunter

§ Orbital elements

Epoch: 2026-05-25T02:03:19.653696Z

Period
94.81 min
Inclination
97.5030°
Eccentricity
0.0008461
Mean motion
15.18803565 rev/d
Perigee alt
503.6 km
Apogee alt
515.3 km
Semi-major
6,887.6 km
B*
2.7236e-4
RAAN
273.4266°
Arg perigee
298.7960°
Mean anomaly
61.2424°
Rev number
1,545

§ Raw data

2026-027A1 67746U 26027A   26145.08564414  .00005603  00000+0  27236-3 0  99932 67746  97.5030 273.4266 0008461 298.7960  61.2424 15.18803565 15452

JSON: /api/v1/satellites/67746 · /tle

For live sub-satellite position, see the globe view (requires WebGL).

§ Visibility from observer

Set your observer location to see the next 7 days of passes ≥ 10°. The values pass through the URL so the page stays shareable.

No JS? Fill the form by hand. The geolocation button needs JavaScript.